Location: Unspecified
(43.4354°N, 0.0000°E)
Time: 08:16:13
(UTC+00:00)

Tiros 1 despin weight - Pass Details

Date: 01 July 2019
Orbit: 594 x 642 km, 48.2° (Epoch: 20 July)

Event Time Altitude Azimuth Distance (km) Brightness Sun altitude
Rises 00:31:32 0° 293° (WNW) 2,852 ? -23.1°
Reaches altitude 10° 00:33:51 10° 295° (WNW) 1,941 ? -23.1°
Maximum altitude 00:38:18 80° 22° (NNE) 608 ? -23.0°
Enters shadow 00:40:13 33° 106° (ESE) 998 ? -22.9°
